[[{"header":{"parameterUnit":"m.s-1","parameterCategory":1,"la1":30.2991,"la2":30.254,"lo1":-89.0895,"lo2":-89.0444,"dy":0.0017,"dx":0.0017,"nx":28,"ny":28,"refTime":"2025-03-12T09:00:00:Z","depth":0,"parameterNumber":2,"parameterNumberName":"U-component_of_WINDS"},"data":[0,0,0,0,0,0,0,0,0,0,0,0,0,0,0,0,0,0,0,0,0,0,0,0,0,0,0,0,0,0,0,0,0,0,0,0,0,0,0,0,0,0,0,0,0,0,0,0,0,0,0,0,0,0,0,0,0,0,0.3599,0.36,0,0.3698,0.3699,0.37,0.3746,0.3746,0.3746,0.3746,0.3846,0.3849,0.3851,0,0,0,0,0,0,0,0,0,0,0,0,0,0.3451,0.3453,0.3599,0.36,0.3602,0.3697,0.3699,0.37,0.3746,0.3746,0.3746,0.3746,0.3845,0.3848,0.3852,0,0,0,0,0,0,0,0,0,0,0,0,0,0.3529,0.3454,0.3599,0.3636,0.3641,0.3697,0.3699,0.37,0.3746,0.3746,0.3746,0.3746,0.3844,0.3848,0.3852,0.3878,0,0,0.3864,0.3866,0,0,0,0,0,0,0,0,0.3524,0.3534,0.363,0.3634,0.3639,0.371,0.3683,0.376,0.3746,0.3706,0.3746,0.3746,0.3801,0.3808,0.3827,0.3883,0.3887,0.3865,0.3867,0.3869,0.387,0,0,0,0,0,0,0,0.3519,0.353,0.3638,0.3631,0.3637,0.3648,0.3659,0.3698,0.3753,0.371,0.3713,0.3724,0.3803,0.3823,0.3829,0.3889,0.3865,0.3868,0.3871,0.3872,0.3972,0.3972,0,0,0,0,0,0,0.3507,0.3525,0.3635,0.3641,0.358,0.3651,0.3663,0.3687,0.3752,0.3762,0.3724,0.3726,0.3816,0.3825,0.3833,0.3869,0.3869,0.3873,0.3875,0.3971,0.3972,0.3972,0,0,0,0,0,0,0.3504,0.3517,0.3631,0.3584,0.36,0.3653,0.368,0.3689,0.3709,0.3763,0.3773,0.3734,0.3816,0.3827,0.3867,0.3873,0.3874,0.3878,0.3971,0.3972,0.3972,0.394,0,0,0,0,0,0,0.35,0.3515,0.3526,0.3584,0.3602,0.3663,0.368,0.3691,0.3716,0.3719,0.3775,0.3785,0.3817,0.3861,0.3871,0.3878,0.3881,0.3971,0.3971,0.3972,0.394,0.3939,0.3937,0,0,0,0,0,0.3494,0.3513,0.3526,0.3539,0.3617,0.3663,0.3674,0.3711,0.3716,0.3727,0.3762,0.3783,0.387,0.3864,0.3876,0.3885,0.3971,0.3971,0.3972,0.3941,0.3939,0.3937,0,0,0,0,0,0,0.3454,0.3521,0.3537,0.3575,0.3613,0.3671,0.3687,0.3707,0.3745,0.3746,0.379,0.3803,0.3838,0.3865,0.3857,0.3914,0.3922,0.3925,0.3895,0.3894,0.3892,0.3885,0.3885,0,0,0,0,0,0.3449,0.3482,0.3539,0.3567,0.3585,0.3632,0.3654,0.368,0.3721,0.3737,0.3775,0.3814,0.385,0.3873,0.391,0.3944,0.3957,0.3956,0.3955,0.3953,0.3955,0.3976,0.3976,0.3974,0.3974,0.3974,0,0,0.344,0.3481,0.3499,0.356,0.3593,0.3625,0.3646,0.368,0.3704,0.3742,0.3782,0.3811,0.3857,0.3895,0.3913,0.3918,0.3959,0.3954,0.3952,0.3955,0.3977,0.3977,0.3977,0.3974,0.3974,0.3974,0,0,0.3441,0.3475,0.3502,0.3535,0.3584,0.3615,0.3621,0.3677,0.3698,0.3738,0.3767,0.3797,0.3859,0.3891,0.3915,0.3927,0.3948,0.3938,0.393,0.395,0.395,0.3951,0.3956,0.3957,0.394,0.394,0.394,0,0.3424,0.3475,0.3514,0.3546,0.3572,0.3608,0.3636,0.3665,0.3723,0.374,0.3746,0.3824,0.3858,0.3903,0.3906,0.3924,0.3933,0.3932,0.3947,0.3948,0.3949,0.3954,0.3956,0.3938,0.3938,0.3939,0.3939,0,0.3451,0.3486,0.3502,0.3558,0.3586,0.3615,0.3659,0.3682,0.3705,0.3735,0.3776,0.3817,0.3863,0.3876,0.3898,0.3924,0.3926,0.3939,0.3948,0.3947,0.3953,0.3955,0.3936,0.3937,0.3937,0.3937,0,0,0.3429,0.3507,0.3512,0.3538,0.3595,0.3622,0.3654,0.3699,0.3718,0.3757,0.3784,0.3835,0.3847,0.3875,0.3901,0.3918,0.3926,0.3929,0.393,0.3927,0.3958,0.3948,0.395,0.3939,0.394,0.394,0.3954,0,0.3438,0.3497,0.3533,0.3577,0.361,0.3644,0.3672,0.3709,0.3738,0.377,0.3802,0.3838,0.3851,0.3868,0.3886,0.3921,0.3932,0.392,0.3965,0.3967,0.3953,0.3953,0.3943,0.3954,0.3956,0.3957,0.3957,0,0.3457,0.3496,0.3543,0.3596,0.3612,0.3636,0.368,0.371,0.3753,0.3773,0.3803,0.383,0.3864,0.387,0.3918,0.3909,0.3929,0.3949,0.395,0.3956,0.3962,0.3959,0.3958,0.396,0.3961,0.396,0.396,0,0.3437,0.3501,0.3538,0.3559,0.3622,0.3638,0.3665,0.3708,0.3733,0.3771,0.3788,0.3829,0.3852,0.3883,0.392,0.3921,0.3964,0.3973,0.3982,0.3981,0.399,0.3989,0.3993,0.4002,0.4002,0.4002,0.4002,0,0.3444,0.3472,0.353,0.3552,0.3584,0.3625,0.3656,0.3685,0.3723,0.3752,0.3784,0.381,0.3857,0.3888,0.3917,0.3953,0.3962,0.398,0.3987,0.3977,0.3975,0.3992,0.3992,0.4002,0.4002,0.4002,0.4002,0,0.3428,0.3468,0.351,0.3567,0.3581,0.3602,0.365,0.3674,0.3704,0.374,0.3751,0.3799,0.3838,0.3878,0.393,0.3949,0.3984,0.3994,0.397,0.3974,0.3981,0.398,0.3996,0.4,0.4006,0.4005,0.4005,0,0.343,0.3452,0.3511,0.3533,0.3559,0.3594,0.3619,0.366,0.3685,0.3736,0.3753,0.3795,0.383,0.3891,0.393,0.3971,0.3982,0.3985,0.3988,0.3978,0.3983,0.3981,0.3984,0.3984,0.3983,0.3983,0.3983,0,0.343,0.3448,0.3484,0.3527,0.3557,0.3592,0.3629,0.3645,0.3693,0.3719,0.376,0.3787,0.3841,0.3882,0.3927,0.3954,0.3977,0.3981,0.3986,0.3976,0.3962,0.397,0.3967,0.3981,0.3981,0.3981,0.3981,0.3982,0.3423,0.3445,0.349,0.3529,0.3561,0.3594,0.3619,0.3652,0.3687,0.3735,0.3756,0.3797,0.384,0.3902,0.3929,0.3962,0.3968,0.3974,0.3975,0.3976,0.3974,0.3956,0.397,0.397,0.397,0.397,0.397,0,0.3425,0.3456,0.3491,0.3542,0.3572,0.3591,0.3632,0.3656,0.3692,0.373,0.3764,0.3811,0.385,0.3893,0.3935,0.3953,0.3964,0.3962,0.3962,0.3968,0.3966,0.3959,0.3953,0.3953,0.3953,0.3953,0.3953,0.3953,0.343,0.3468,0.3491,0.3545,0.3575,0.3616,0.3638,0.3669,0.37,0.375,0.3784,0.3811,0.3851,0.3896,0.3933,0.3945,0.3959,0.3954,0.3969,0.3967,0.3968,0.3969,0.3962,0.3957,0.3957,0.3968,0.3968,0.3968]},{"header":{"parameterUnit":"m.s-1","parameterCategory":1,"la1":30.2991,"la2":30.254,"lo1":-89.0895,"lo2":-89.0444,"dy":0.0017,"dx":0.0017,"nx":28,"ny":28,"refTime":"2025-03-12T09:00:00:Z","depth":0,"parameterNumber":3,"parameterNumberName":"V-component_of_WINDS"},"data":[0,0,0,0,0,0,0,0,0,0,0,0,0,0,0,0,0,0,0,0,0,0,0,0,0,0,0,0,0,0,0,0,0,0,0,0,0,0,0,0,0,0,0,0,0,0,0,0,0,0,0,0,0,0,0,0,0,0,3.9069,3.9069,0,3.9011,3.9011,3.901,3.8983,3.8983,3.8984,3.8984,3.8921,3.8919,3.8918,0,0,0,0,0,0,0,0,0,0,0,0,0,3.9155,3.9154,3.907,3.9069,3.9068,3.9011,3.9011,3.901,3.8983,3.8983,3.8984,3.8984,3.8922,3.892,3.8917,0,0,0,0,0,0,0,0,0,0,0,0,0,3.911,3.9153,3.907,3.9048,3.9046,3.9012,3.9011,3.901,3.8983,3.8983,3.8984,3.8984,3.8922,3.892,3.8917,3.8899,0,0,3.8909,3.8908,0,0,0,0,0,0,0,0,3.9112,3.9106,3.9052,3.905,3.9047,3.9005,3.9018,3.8973,3.8983,3.9007,3.8984,3.8984,3.8949,3.8944,3.8933,3.8896,3.8894,3.8909,3.8907,3.8906,3.8906,0,0,0,0,0,0,0,3.9115,3.9109,3.9046,3.9051,3.9048,3.9041,3.9034,3.9009,3.8978,3.9005,3.9003,3.8996,3.8947,3.8935,3.8931,3.8893,3.8909,3.8907,3.8905,3.8904,3.884,3.884,0,0,0,0,0,0,3.9122,3.9112,3.9048,3.9045,3.908,3.9039,3.9032,3.9018,3.8978,3.8972,3.8996,3.8995,3.894,3.8934,3.8929,3.8906,3.8906,3.8904,3.8902,3.884,3.884,3.884,0,0,0,0,0,0,3.9124,3.9117,3.9051,3.9078,3.9069,3.9037,3.9022,3.9017,3.9005,3.8972,3.8966,3.899,3.8939,3.8932,3.8907,3.8903,3.8903,3.89,3.884,3.884,3.884,3.886,0,0,0,0,0,0,3.9127,3.9118,3.9111,3.9078,3.9067,3.9031,3.9022,3.9016,3.9001,3.8999,3.8964,3.8958,3.8939,3.8911,3.8905,3.89,3.8898,3.884,3.884,3.884,3.8859,3.886,3.8861,0,0,0,0,0,3.913,3.9118,3.9111,3.9104,3.9058,3.9031,3.9025,3.9003,3.9001,3.8993,3.8972,3.896,3.8905,3.8909,3.8901,3.8895,3.8841,3.884,3.884,3.8859,3.886,3.8861,0,0,0,0,0,0,3.915,3.9113,3.9105,3.9082,3.906,3.9026,3.9016,3.9005,3.8982,3.8981,3.8955,3.8947,3.8924,3.8907,3.8912,3.8876,3.8872,3.887,3.8889,3.8889,3.889,3.8895,3.8896,0,0,0,0,0,3.9153,3.9134,3.9102,3.9085,3.9074,3.9048,3.9035,3.902,3.8996,3.8986,3.8963,3.8939,3.8916,3.8902,3.8879,3.8857,3.8849,3.8849,3.885,3.8851,3.8849,3.8837,3.8837,3.8839,3.8839,3.8839,0,0,3.9156,3.9134,3.9123,3.9089,3.907,3.9051,3.904,3.9019,3.9005,3.8982,3.8958,3.894,3.8912,3.8888,3.8877,3.8873,3.8847,3.885,3.8851,3.8849,3.8837,3.8836,3.8836,3.8838,3.8838,3.8838,0,0,3.9153,3.9134,3.9118,3.91,3.9072,3.9055,3.9051,3.9019,3.9007,3.8982,3.8966,3.8947,3.8909,3.889,3.8875,3.8866,3.8854,3.8859,3.8864,3.8852,3.8852,3.8852,3.8849,3.8848,3.8858,3.8858,3.8858,0,3.9161,3.9132,3.9111,3.9093,3.9078,3.9058,3.9042,3.9025,3.899,3.8981,3.8978,3.893,3.8909,3.8881,3.888,3.8868,3.8863,3.8863,3.8854,3.8853,3.8853,3.885,3.8849,3.8859,3.8859,3.8859,3.8859,0,3.9143,3.9124,3.9114,3.9083,3.9067,3.905,3.9026,3.9012,3.9,3.8982,3.8958,3.8932,3.8905,3.8897,3.8884,3.8868,3.8866,3.8859,3.8853,3.8854,3.8851,3.8849,3.886,3.886,3.886,3.886,0,0,3.915,3.911,3.9106,3.9093,3.9061,3.9045,3.9027,3.9001,3.899,3.8968,3.8952,3.892,3.8914,3.8897,3.8881,3.8871,3.8867,3.8865,3.8864,3.8866,3.8848,3.8854,3.8853,3.8859,3.8858,3.8858,3.885,0,3.9143,3.9111,3.9092,3.9067,3.9049,3.9031,3.9015,3.8993,3.8977,3.8959,3.894,3.8919,3.8911,3.8901,3.889,3.887,3.8863,3.887,3.8843,3.8842,3.8851,3.8851,3.8857,3.8851,3.8849,3.8849,3.8849,0,3.913,3.911,3.9083,3.9055,3.9047,3.9033,3.9009,3.8992,3.8967,3.8956,3.8938,3.8923,3.8903,3.89,3.8871,3.8877,3.8865,3.8853,3.8852,3.8849,3.8846,3.8848,3.8849,3.8848,3.8846,3.8847,3.8847,0,3.9139,3.9104,3.9084,3.9073,3.904,3.9031,3.9016,3.8992,3.8978,3.8956,3.8947,3.8923,3.891,3.8891,3.887,3.8869,3.8844,3.8839,3.8834,3.8835,3.8829,3.883,3.8828,3.8821,3.8821,3.8821,3.8821,0,3.9133,3.9117,3.9088,3.9076,3.9058,3.9037,3.902,3.9003,3.8982,3.8966,3.8949,3.8934,3.8907,3.8888,3.8872,3.8851,3.8845,3.8835,3.8831,3.8837,3.8838,3.8828,3.8828,3.8821,3.8821,3.8821,3.8821,0,3.9139,3.9119,3.9096,3.9067,3.9059,3.9048,3.9022,3.9009,3.8993,3.8973,3.8967,3.894,3.8918,3.8895,3.8864,3.8853,3.8833,3.8827,3.8842,3.884,3.8836,3.8837,3.8828,3.8826,3.8821,3.8821,3.8821,0,3.9136,3.9125,3.9095,3.9084,3.907,3.9052,3.9038,3.9016,3.9003,3.8975,3.8966,3.8942,3.8923,3.8888,3.8865,3.8842,3.8835,3.8834,3.8832,3.8838,3.8836,3.8837,3.8836,3.8835,3.8835,3.8835,3.8835,0,3.9134,3.9126,3.9107,3.9086,3.907,3.9052,3.9032,3.9024,3.8998,3.8984,3.8962,3.8947,3.8917,3.8894,3.8868,3.8852,3.8839,3.8836,3.8834,3.884,3.8849,3.8845,3.8845,3.8836,3.8836,3.8836,3.8836,3.8836,3.9136,3.9125,3.9103,3.9084,3.9067,3.905,3.9037,3.902,3.9001,3.8976,3.8964,3.8942,3.8918,3.8883,3.8867,3.8849,3.8846,3.8842,3.8842,3.8841,3.8843,3.8852,3.8845,3.8845,3.8844,3.8844,3.8844,0,3.9134,3.9119,3.9101,3.9076,3.9061,3.9051,3.903,3.9017,3.8999,3.8978,3.896,3.8935,3.8913,3.8889,3.8866,3.8856,3.885,3.8851,3.8851,3.8848,3.8847,3.8852,3.8856,3.8856,3.8856,3.8856,3.8856,3.8856,3.9131,3.9112,3.9101,3.9074,3.9059,3.9038,3.9027,3.9011,3.8994,3.8968,3.895,3.8935,3.8914,3.8889,3.8868,3.8862,3.8854,3.8857,3.8849,3.8849,3.8848,3.8847,3.8851,3.8855,3.8855,3.8851,3.8851,3.8851]}]]